Weather History for Lee's Summit, MO

Change the Weather History Date:

Monday, May 12, 2014

  Actual Average (KMKC) Record (KMKC)
Temperature  
Mean Temperature 64 °F -  
Max Temperature 79 °F 73 °F 87 °F (2007)
Min Temperature 48 °F 54 °F 41 °F (2013)
Growing Degree Days 14 (Base 50)    
Moisture  
Dew Point 60 °F    
Average Humidity 82    
Maximum Humidity 93    
Minimum Humidity 66    
Precipitation  
Precipitation 0.31 in - - ()
Sea Level Pressure  
Sea Level Pressure 29.82 in    
Wind  
Wind Speed 12 mph (WSW)    
Max Wind Speed 22 mph    
Max Gust Speed 30 mph    
Visibility 9 miles    
Events Rain , Thunderstorm    
Averages and records for this station are not official NWS values.
T = Trace of Precipitation, MM = Missing Value Source: NWS Daily Summary

Daily Weather History Graph

Daily Weather History Graph

Search for Another Location

Airport:

Trip Planner

Search our weather history database for the weather conditions in past years. The results will help you decide how hot, cold, wet, or windy it might be!

Date:

Astronomy

May. 12, 2014 Rise Set
Actual Time 6:07 AM CDT 8:20 PM CDT
Civil Twilight 5:37 AM CDT 8:50 PM CDT
Nautical Twilight 5:01 AM CDT 9:27 PM CDT
Astronomical Twilight 4:21 AM CDT 10:07 PM CDT
Moon 6:20 PM CDT (5/12) 4:45 AM CDT (5/12)
Length of Visible Light 15h 12m
Length of Day
14h 13m
Waxing Gibbous, 95% of the Moon is Illuminated
May 12
Waxing Gibbous
May 14
Full
May 21
Last Quarter
May 28
New
Jun 5
First Quarter

Hourly Weather History & Observations

Time (CDT) Temp. Dew Point Humidity Pressure Visibility Wind Dir Wind Speed Gust Speed Precip Events Conditions
12:53 AM 75.0 °F 63.0 °F 66% 29.69 in 10.0 mi SSE 13.8 mph 20.7 mph N/A   Clear
1:53 AM 75.0 °F 64.9 °F 71% 29.69 in 10.0 mi South 6.9 mph - N/A   Clear
2:15 AM 75.0 °F 64.9 °F 71% 29.73 in 10.0 mi SSW 5.8 mph - N/A   Mostly Cloudy
2:53 AM 75.0 °F 64.9 °F 71% 29.69 in 10.0 mi Variable 3.5 mph - N/A   Overcast
3:51 AM 75.2 °F 64.4 °F 69% 29.75 in 10.0 mi SSE 6.9 mph 19.6 mph N/A   Overcast
3:53 AM 73.9 °F 64.9 °F 73% 29.72 in 10.0 mi SSE 12.7 mph 19.6 mph N/A   Overcast
4:15 AM 73.9 °F 64.9 °F 73% 29.74 in 10.0 mi South 10.4 mph 18.4 mph N/A Thunderstorm Overcast
4:53 AM 71.1 °F 66.0 °F 84% 29.73 in 3.0 mi SW 21.9 mph 26.5 mph 0.07 in Rain Light Rain
5:53 AM 66.9 °F 63.0 °F 87% 29.72 in 10.0 mi South 3.5 mph - 0.01 in   Overcast
6:53 AM 71.1 °F 66.0 °F 84% 29.71 in 10.0 mi SSE 12.7 mph 20.7 mph N/A   Scattered Clouds
7:53 AM 72.0 °F 66.9 °F 84% 29.70 in 10.0 mi South 12.7 mph 19.6 mph N/A   Scattered Clouds
8:35 AM 73.9 °F 66.9 °F 79% 29.77 in 10.0 mi South 16.1 mph 24.2 mph N/A   Mostly Cloudy
8:43 AM 73.9 °F 66.9 °F 79% 29.77 in 10.0 mi SSW 13.8 mph 21.9 mph N/A   Mostly Cloudy
9:53 AM 75.0 °F 66.0 °F 73% 29.76 in 10.0 mi South 12.7 mph - N/A   Overcast
10:08 AM 73.9 °F 66.0 °F 76% 29.79 in 10.0 mi South 12.7 mph 18.4 mph N/A   Overcast
10:15 AM 75.0 °F 66.0 °F 73% 29.79 in 10.0 mi South 9.2 mph 18.4 mph N/A   Overcast
10:53 AM 75.0 °F 66.0 °F 73% 29.76 in 10.0 mi South 13.8 mph - N/A   Overcast
11:53 AM 78.1 °F 66.9 °F 68% 29.75 in 10.0 mi South 18.4 mph 23.0 mph N/A   Overcast
12:53 PM 79.0 °F 66.9 °F 66% 29.75 in 10.0 mi SSW 16.1 mph 29.9 mph 0.00 in   Mostly Cloudy
1:11 PM 73.9 °F 66.9 °F 79% 29.78 in 9.0 mi WSW 9.2 mph 18.4 mph N/A   Overcast
1:30 PM 71.1 °F 66.9 °F 87% 29.80 in 7.0 mi SW 12.7 mph - 0.00 in Rain , Thunderstorm Light Thunderstorms and Rain
1:50 PM 71.6 °F 66.2 °F 83% 29.80 in 10.0 mi WSW 9.2 mph - 0.00 in Thunderstorm Thunderstorm
1:53 PM 71.1 °F 66.9 °F 87% 29.77 in 10.0 mi WSW 8.1 mph - 0.00 in Thunderstorm Thunderstorm
2:04 PM 71.1 °F 66.9 °F 87% 29.81 in 10.0 mi WSW 13.8 mph - N/A Thunderstorm Overcast
2:53 PM 69.1 °F 62.1 °F 78% 29.79 in 10.0 mi WSW 12.7 mph 19.6 mph N/A Thunderstorm Overcast
3:01 PM 68.0 °F 62.1 °F 81% 29.82 in 10.0 mi WSW 12.7 mph - N/A   Overcast
3:18 PM 66.0 °F 61.0 °F 84% 29.82 in 10.0 mi West 16.1 mph 23.0 mph N/A   Overcast
3:53 PM 60.1 °F 55.9 °F 86% 29.83 in 10.0 mi West 13.8 mph 24.2 mph 0.01 in Rain Light Rain
4:01 PM 59.0 °F 55.9 °F 90% 29.86 in 7.0 mi West 11.5 mph 19.6 mph 0.01 in Rain , Thunderstorm Light Rain
4:09 PM 59.0 °F 55.0 °F 87% 29.87 in 6.0 mi West 13.8 mph 23.0 mph 0.03 in Rain , Thunderstorm Thunderstorms and Rain
4:24 PM 57.9 °F 55.9 °F 93% 29.82 in 3.0 mi NW 6.9 mph - 0.08 in Rain , Thunderstorm Thunderstorms and Rain
4:36 PM 57.9 °F 55.9 °F 93% 29.87 in 10.0 mi Variable 3.5 mph - 0.09 in Rain , Thunderstorm Light Rain
4:53 PM 57.9 °F 55.9 °F 93% 29.85 in 10.0 mi WNW 9.2 mph - 0.09 in Rain , Thunderstorm Light Rain
5:00 PM 57.9 °F 55.9 °F 93% 29.86 in 10.0 mi WNW 15.0 mph 23.0 mph 0.00 in   Overcast
5:38 PM 57.0 °F 54.0 °F 89% 29.87 in 8.0 mi WNW 13.8 mph 19.6 mph 0.01 in Thunderstorm Overcast
5:45 PM 57.0 °F 54.0 °F 89% 29.87 in 2.5 mi WNW 17.3 mph - 0.06 in Rain , Thunderstorm Heavy Rain
5:53 PM 55.9 °F 53.1 °F 90% 29.85 in 1.5 mi NW 16.1 mph - 0.13 in Rain , Thunderstorm Rain
5:55 PM 55.9 °F 53.1 °F 90% 29.85 in 2.0 mi NW 13.8 mph - 0.00 in Rain , Thunderstorm Light Rain
5:58 PM 55.9 °F 53.1 °F 90% 29.85 in 3.0 mi NW 16.1 mph 24.2 mph 0.00 in Rain Light Rain
6:25 PM 55.9 °F 53.1 °F 90% 29.87 in 10.0 mi WNW 12.7 mph 21.9 mph 0.00 in   Overcast
6:53 PM 55.0 °F 52.0 °F 89% 29.88 in 10.0 mi NW 15.0 mph - 0.00 in   Overcast
7:07 PM 55.0 °F 51.1 °F 86% 29.90 in 10.0 mi WNW 11.5 mph - N/A   Overcast
7:31 PM 55.0 °F 51.1 °F 86% 29.89 in 10.0 mi NW 16.1 mph - N/A   Overcast
7:51 PM 55.4 °F 51.8 °F 88% 29.91 in 10.0 mi WNW 11.5 mph - N/A   Overcast
7:53 PM 55.0 °F 51.1 °F 86% 29.90 in 10.0 mi WNW 12.7 mph 19.6 mph N/A   Overcast
8:53 PM 54.0 °F 48.0 °F 80% 29.95 in 10.0 mi NW 10.4 mph - N/A   Overcast
10:53 PM 51.1 °F 46.0 °F 83% 29.99 in 10.0 mi NW 13.8 mph - N/A   Overcast
11:02 PM 50.0 °F 46.0 °F 86% 30.00 in 7.0 mi NW 12.7 mph - N/A   Overcast
11:53 PM 48.9 °F 46.0 °F 90% 30.02 in 4.0 mi NW 15.0 mph - N/A   Overcast